N5VKM Weather Reports


time (UTC)temp
C
wind
direction
speed
KPH
gust
KPH
rain 1hr
cm
rain 24hr
cm
rain mn
cm
humidity
%
barometer
mb
20260906225104 36 332 0.0 0.0 0.00 0.00 0.00 46 1011.2
20260906224540 36 331 0.0 0.0 0.00 0.00 0.00 46 1011.2
20260906224034 36 331 0.0 0.0 0.00 0.00 0.00 45 1011.2
20260906223544 36 332 0.0 0.0 0.00 0.00 0.00 46 1011.2
20260906223032 36 331 0.0 0.0 0.00 0.00 0.00 45 1011.3
20260906222543 36 331 0.0 0.0 0.00 0.00 0.00 45 1011.3
20260906222032 36 331 0.0 0.0 0.00 0.00 0.00 46 1011.3
20260906221559 36 333 0.0 0.0 0.00 0.00 0.00 46 1011.3
20260906221028 36 336 0.0 0.0 0.00 0.00 0.00 46 1011.2
20260906220542 36 333 0.0 0.0 0.00 0.00 0.00 46 1011.2
20260906220033 36 333 0.0 0.0 0.00 0.00 0.00 46 1011.3
20260906215540 36 331 0.0 0.0 0.00 0.00 0.00 46 1011.3
20260906215035 37 331 0.0 0.0 0.00 0.00 0.00 46 1011.3
20260906214543 37 330 0.0 0.0 0.00 0.00 0.00 46 1011.4
20260906214030 36 331 0.0 0.0 0.00 0.00 0.00 46 1011.3
20260906213546 37 333 0.0 0.0 0.00 0.00 0.00 46 1011.3
20260906213037 37 333 0.0 0.0 0.00 0.00 0.00 45 1011.3
20260906212549 36 333 0.0 0.0 0.00 0.00 0.00 46 1011.4
20260906212040 37 331 0.0 0.0 0.00 0.00 0.00 46 1011.6
20260906211528 37 333 0.0 0.0 0.00 0.00 0.00 45 1011.7
20260906211042 37 332 0.0 0.0 0.00 0.00 0.00 46 1011.7
20260906210550 37 331 0.0 0.0 0.00 0.00 0.00 45 1011.9
20260906210041 37 331 0.0 0.0 0.00 0.00 0.00 45 1011.9
20260906205548 37 332 0.0 0.0 0.00 0.00 0.00 45 1012.0
20260906205101 37 331 0.0 0.0 0.00 0.00 0.00 45 1012.1
20260906204537 37 332 0.0 0.0 0.00 0.00 0.00 45 1012.2
20260906204046 37 331 0.0 0.0 0.00 0.00 0.00 45 1012.2
20260906203534 37 329 0.0 0.0 0.00 0.00 0.00 45 1012.3
20260906203048 37 330 0.0 0.0 0.00 0.00 0.00 45 1012.3
20260906202655 37 331 0.0 0.0 0.00 0.00 0.00 46 1012.3
20260906202049 37 331 0.0 0.0 0.00 0.00 0.00 45 1012.5
20260906201536 37 330 0.0 0.0 0.00 0.00 0.00 45 1012.5
20260906201046 37 332 0.0 0.0 0.00 0.00 0.00 45 1012.6
20260906200541 37 330 0.0 0.0 0.00 0.00 0.00 45 1012.7
20260906200049 37 331 0.0 0.0 0.00 0.00 0.00 45 1012.7
20260906195558 36 330 0.0 0.0 0.00 0.00 0.00 46 1012.7
20260906195044 36 329 0.0 0.0 0.00 0.00 0.00 46 1012.7
20260906194537 36 331 0.0 0.0 0.00 0.00 0.00 46 1012.8
20260906194034 36 331 0.0 0.0 0.00 0.00 0.00 46 1012.8
20260906193544 37 331 0.0 0.0 0.00 0.00 0.00 45 1012.8
20260906193036 36 331 0.0 0.0 0.00 0.00 0.00 46 1012.9
20260906192555 36 333 0.0 0.0 0.00 0.00 0.00 47 1013.0
20260906192029 36 331 0.0 0.0 0.00 0.00 0.00 47 1013.1
20260906191541 36 332 0.0 0.0 0.00 0.00 0.00 47 1013.1
20260906191031 36 331 0.0 0.0 0.00 0.00 0.00 46 1013.2
20260906190540 36 329 0.0 0.0 0.00 0.00 0.00 46 1013.2
20260906190034 36 329 0.0 0.0 0.00 0.00 0.00 47 1013.4
20260906185545 36 331 0.0 0.0 0.00 0.00 0.00 46 1013.4
20260906185032 36 331 0.0 0.0 0.00 0.00 0.00 47 1013.4
20260906184529 36 331 0.0 0.0 0.00 0.00 0.00 47 1013.5
20260906184043 36 333 0.0 0.0 0.00 0.00 0.00 47 1013.5
20260906183550 36 331 0.0 0.0 0.00 0.00 0.00 48 1013.5
20260906183106 36 331 0.0 0.0 0.00 0.00 0.00 47 1013.6
20260906182538 36 331 0.0 0.0 0.00 0.00 0.00 48 1013.7
20260906182048 36 331 0.0 0.0 0.00 0.00 0.00 49 1013.7
20260906181536 36 331 0.0 0.0 0.00 0.00 0.00 49 1013.9
20260906181032 36 329 0.0 0.0 0.00 0.00 0.00 49 1014.1
20260906180539 36 331 0.0 0.0 0.00 0.00 0.00 49 1014.2
20260906180030 36 332 0.0 0.0 0.00 0.00 0.00 50 1014.1
20260906175544 36 331 0.0 0.0 0.00 0.00 0.00 50 1014.2
20260906175032 35 331 0.0 0.0 0.00 0.00 0.00 50 1014.3
20260906174541 35 330 0.0 0.0 0.00 0.00 0.00 51 1014.4
20260906174032 35 331 0.0 0.0 0.00 0.00 0.00 51 1014.4
20260906173540 35 332 0.0 0.0 0.00 0.00 0.00 50 1014.4
20260906173049 35 331 0.0 0.0 0.00 0.00 0.00 50 1014.5
20260906172536 35 331 0.0 0.0 0.00 0.00 0.00 51 1014.6
20260906172045 35 331 0.0 0.0 0.00 0.00 0.00 51 1014.6
20260906171536 35 331 0.0 0.0 0.00 0.00 0.00 51 1014.6
20260906171044 35 331 0.0 0.0 0.00 0.00 0.00 53 1014.7
20260906170532 35 333 0.0 0.0 0.00 0.00 0.00 53 1014.7
20260906170042 35 331 0.0 0.0 0.00 0.00 0.00 52 1014.8
20260906165528 35 331 0.0 0.0 0.00 0.00 0.00 53 1014.8
20260906165058 35 332 0.0 0.0 0.00 0.00 0.00 53 1014.9
20260906164534 35 331 0.0 0.0 0.00 0.00 0.00 54 1014.9
20260906164043 35 331 0.0 0.0 0.00 0.00 0.00 54 1015.0
20260906163530 34 332 0.0 0.0 0.00 0.00 0.00 54 1015.0
20260906163042 34 331 0.0 0.0 0.00 0.00 0.00 54 1014.9
20260906162529 34 331 0.0 0.0 0.00 0.00 0.00 55 1014.8
20260906162040 34 331 0.0 0.0 0.00 0.00 0.00 55 1014.9
20260906161549 34 331 0.0 0.0 0.00 0.00 0.00 55 1014.7
20260906161026 34 330 0.0 0.0 0.00 0.00 0.00 56 1014.7
20260906160556 33 330 0.0 0.0 0.00 0.00 0.00 56 1014.7
20260906160030 33 331 0.0 0.0 0.00 0.00 0.00 55 1014.7
20260906155539 33 331 0.0 0.0 0.00 0.00 0.00 56 1014.7
20260906155105 33 332 0.0 0.0 0.00 0.00 0.00 56 1014.8
20260906154551 33 334 0.0 0.0 0.00 0.00 0.00 56 1014.7
20260906154057 33 332 0.0 0.0 0.00 0.00 0.00 56 1014.7
20260906153549 33 331 0.0 0.0 0.00 0.00 0.00 56 1014.7
20260906153040 33 330 0.0 0.0 0.00 0.00 0.00 58 1014.7
20260906152530 33 331 0.0 0.0 0.00 0.00 0.00 59 1014.7
20260906152041 33 331 0.0 0.0 0.00 0.00 0.00 59 1014.6
20260906151529 33 331 0.0 0.0 0.00 0.00 0.00 61 1014.7
20260906151040 32 333 0.0 0.0 0.00 0.00 0.00 62 1014.7
20260906150528 32 331 0.0 0.0 0.00 0.00 0.00 63 1014.6
20260906150041 32 330 0.0 0.0 0.00 0.00 0.00 65 1014.6
20260906145528 32 331 0.0 0.0 0.00 0.00 0.00 67 1014.6
20260906145040 31 331 0.0 0.0 0.00 0.00 0.00 68 1014.6
20260906144526 31 330 0.0 0.0 0.00 0.00 0.00 70 1014.6
20260906144101 31 330 0.0 0.0 0.00 0.00 0.00 70 1014.5
20260906143549 30 331 0.0 0.0 0.00 0.00 0.00 73 1014.6
20260906143039 30 331 0.0 0.0 0.00 0.00 0.00 74 1014.6
20260906142529 30 331 0.0 0.0 0.00 0.00 0.00 76 1014.7
20260906142040 29 331 0.0 0.0 0.00 0.00 0.00 76 1014.8
20260906141528 29 331 0.0 0.0 0.00 0.00 0.00 77 1014.8
20260906141039 29 331 0.0 0.0 0.00 0.00 0.00 78 1014.8
20260906140527 28 331 0.0 0.0 0.00 0.00 0.00 79 1014.8
20260906140059 28 331 0.0 0.0 0.00 0.00 0.00 81 1014.7
20260906135549 28 331 0.0 0.0 0.00 0.00 0.00 81 1014.7
20260906135037 28 331 0.0 0.0 0.00 0.00 0.00 82 1014.7
20260906134529 27 331 0.0 0.0 0.00 0.00 0.00 83 1014.7
20260906134037 27 332 0.0 0.0 0.00 0.00 0.00 84 1014.7
20260906133545 27 332 0.0 0.0 0.00 0.00 0.00 84 1014.7
20260906133058 26 332 0.0 0.0 0.00 0.00 0.00 85 1014.8
20260906132607 26 332 0.0 0.0 0.00 0.00 0.00 85 1014.8
20260906132036 26 333 0.0 0.0 0.00 0.00 0.00 85 1014.8
20260906131549 26 332 0.0 0.0 0.00 0.00 0.00 85 1014.8
20260906131042 26 332 0.0 0.0 0.00 0.00 0.00 85 1014.7
20260906130539 25 333 0.0 0.0 0.00 0.00 0.00 85 1014.7
20260906130047 25 333 0.0 0.0 0.00 0.00 0.00 85 1014.6
20260906125534 25 333 0.0 0.0 0.00 0.00 0.00 85 1014.6
20260906125043 25 333 0.0 0.0 0.00 0.00 0.00 85 1014.6
20260906124551 25 333 0.0 0.0 0.00 0.00 0.00 85 1014.6
20260906124036 25 333 0.0 0.0 0.00 0.00 0.00 86 1014.5
20260906123609 25 333 0.0 0.0 0.00 0.00 0.00 86 1014.4
20260906123038 24 333 0.0 0.0 0.00 0.00 0.00 86 1014.4
20260906122545 24 333 0.0 0.0 0.00 0.00 0.00 86 1014.3
20260906122034 24 333 0.0 0.0 0.00 0.00 0.00 86 1014.4
20260906121530 24 333 0.0 0.0 0.00 0.00 0.00 86 1014.3
20260906121038 25 333 0.0 0.0 0.00 0.00 0.00 85 1014.3
20260906120548 25 333 0.0 0.0 0.00 0.00 0.00 85 1014.2
20260906120058 25 333 0.0 0.0 0.00 0.00 0.00 85 1014.1
20260906115548 25 333 0.0 0.0 0.00 0.00 0.00 85 1014.2
20260906115035 25 333 0.0 0.0 0.00 0.00 0.00 85 1014.1
20260906114545 25 333 0.0 0.0 0.00 0.00 0.00 85 1014.1
20260906114036 25 333 0.0 0.0 0.00 0.00 0.00 85 1014.1
20260906113544 25 333 0.0 0.0 0.00 0.00 0.00 85 1014.0
20260906113051 25 333 0.0 0.0 0.00 0.00 0.00 85 1014.1
20260906112545 25 334 0.0 0.0 0.00 0.00 0.00 85 1013.9
20260906112036 25 334 0.0 0.0 0.00 0.00 0.00 85 1013.9
20260906111542 25 334 0.0 0.0 0.00 0.00 0.00 85 1013.8
20260906111035 25 334 0.0 0.0 0.00 0.00 0.00 85 1013.9
20260906110528 25 334 0.0 0.0 0.00 0.00 0.00 85 1013.9
20260906110041 25 334 0.0 0.0 0.00 0.00 0.00 85 1013.8
20260906105533 25 334 0.0 0.0 0.00 0.00 0.00 85 1013.7
20260906105045 25 334 0.0 0.0 0.00 0.00 0.00 85 1013.6
20260906104533 25 334 0.0 0.0 0.00 0.00 0.00 85 1013.5
20260906104107 25 334 0.0 0.0 0.00 0.00 0.00 85 1013.4
20260906103537 25 334 0.0 0.0 0.00 0.00 0.00 84 1013.4
20260906103045 25 334 0.0 0.0 0.00 0.00 0.00 84 1013.4
20260906102536 25 334 0.0 0.0 0.00 0.00 0.00 84 1013.4
20260906102044 25 334 0.0 0.0 0.00 0.00 0.00 84 1013.3
20260906101530 25 334 0.0 0.0 0.00 0.00 0.00 84 1013.4
20260906101041 25 334 0.0 0.0 0.00 0.00 0.00 84 1013.4
20260906100552 25 334 0.0 0.0 0.00 0.00 0.00 84 1013.4
20260906100042 26 334 0.0 0.0 0.00 0.00 0.00 84 1013.4
20260906095536 26 334 0.0 0.0 0.00 0.00 0.00 84 1013.4
20260906095027 26 334 0.0 0.0 0.00 0.00 0.00 83 1013.4
20260906094543 26 334 0.0 0.0 0.00 0.00 0.00 83 1013.3
20260906094036 26 334 0.0 0.0 0.00 0.00 0.00 83 1013.2
20260906093547 26 334 0.0 0.0 0.00 0.00 0.00 83 1013.2
20260906093100 26 334 0.0 0.0 0.00 0.00 0.00 83 1013.1
20260906092609 26 334 0.0 0.0 0.00 0.00 0.00 83 1013.1
20260906092033 26 334 0.0 0.0 0.00 0.00 0.00 83 1013.1
20260906091545 26 334 0.0 0.0 0.00 0.00 0.00 83 1013.1
20260906091033 26 334 0.0 0.0 0.00 0.00 0.00 83 1013.1
20260906090559 26 334 0.0 0.0 0.00 0.00 0.00 83 1013.1
20260906090046 26 334 0.0 0.0 0.00 0.00 0.00 83 1013.0
20260906085553 26 334 0.0 0.0 0.00 0.00 0.00 82 1013.1
20260906085103 26 334 0.0 0.0 0.00 0.00 0.00 82 1013.0
20260906084550 26 333 0.0 0.0 0.00 0.00 0.00 82 1012.9
20260906084041 26 333 0.0 0.0 0.00 0.00 0.00 82 1012.8
20260906083550 26 334 0.0 0.0 0.00 0.00 0.00 82 1012.8
20260906083043 26 334 0.0 0.0 0.00 0.00 0.00 81 1012.8
20260906082540 26 334 0.0 0.0 0.00 0.00 0.00 81 1012.8
20260906082048 26 334 0.0 0.0 0.00 0.00 0.00 81 1012.8
20260906081535 26 334 0.0 0.0 0.00 0.00 0.00 81 1012.8
20260906081048 26 334 0.0 0.0 0.00 0.00 0.00 81 1012.8
20260906080536 26 334 0.0 0.0 0.00 0.00 0.00 80 1012.9
20260906080109 27 335 0.0 0.0 0.00 0.00 0.00 80 1012.9
20260906075535 27 334 0.0 0.0 0.00 0.00 0.00 80 1012.8
20260906075042 27 334 0.0 0.0 0.00 0.00 0.00 80 1012.7
20260906074550 27 335 0.0 0.0 0.00 0.00 0.00 79 1012.6
20260906074044 27 334 0.0 0.0 0.00 0.00 0.00 79 1012.7
20260906073531 27 334 0.0 0.0 0.00 0.00 0.00 79 1012.7
20260906073059 27 334 0.0 0.0 0.00 0.00 0.00 79 1012.8
20260906072550 27 334 0.0 0.0 0.00 0.00 0.00 79 1012.7
20260906072033 27 335 0.0 0.0 0.00 0.00 0.00 78 1012.8
20260906071543 27 334 0.0 0.0 0.00 0.00 0.00 78 1012.9
20260906071036 27 334 0.0 0.0 0.00 0.00 0.00 78 1012.9
20260906070543 27 334 0.0 0.0 0.00 0.00 0.00 78 1013.0
20260906070037 27 334 0.0 0.0 0.00 0.00 0.00 78 1013.1
20260906065543 27 334 0.0 0.0 0.00 0.00 0.00 77 1013.2
20260906065034 27 334 0.0 0.0 0.00 0.00 0.00 77 1013.2
20260906064541 27 334 0.0 0.0 0.00 0.00 0.00 77 1013.2
20260906064035 27 334 0.0 0.0 0.00 0.00 0.00 77 1013.3
20260906063531 27 334 0.0 0.0 0.00 0.00 0.00 77 1013.3
20260906063040 27 333 0.0 0.0 0.00 0.00 0.00 77 1013.2
20260906062553 27 334 0.0 0.0 0.00 0.00 0.00 77 1013.1
20260906062058 27 333 0.0 0.0 0.00 0.00 0.00 77 1013.1
20260906061533 27 334 0.0 0.0 0.00 0.00 0.00 76 1013.0
20260906061045 27 334 0.0 0.0 0.00 0.00 0.00 76 1012.9
20260906060535 27 333 0.0 0.0 0.00 0.00 0.00 76 1012.9
20260906060044 28 333 0.0 0.0 0.00 0.00 0.00 76 1013.0
20260906055532 28 333 0.0 0.0 0.00 0.00 0.00 76 1013.1
20260906055042 28 333 0.0 0.0 0.00 0.00 0.00 76 1013.2
20260906054534 28 333 0.0 0.0 0.00 0.00 0.00 75 1013.2
20260906054050 28 333 0.0 0.0 0.00 0.00 0.00 75 1013.2
20260906053547 28 333 0.0 0.0 0.00 0.00 0.00 75 1013.2
20260906053036 28 334 0.0 0.0 0.00 0.00 0.00 75 1013.1
20260906052550 28 334 0.0 0.0 0.00 0.00 0.00 75 1013.1
20260906052056 28 334 0.0 0.0 0.00 0.00 0.00 75 1013.1
20260906051542 28 334 0.0 0.0 0.00 0.00 0.00 74 1013.0
20260906051049 28 334 0.0 0.0 0.00 0.00 0.00 74 1013.0
20260906050536 28 334 0.0 0.0 0.00 0.00 0.00 74 1013.1
20260906050106 28 334 0.0 0.0 0.00 0.00 0.00 74 1013.0
20260906045533 28 335 0.0 0.0 0.00 0.00 0.00 74 1013.0
20260906045040 28 334 0.0 0.0 0.00 0.00 0.00 73 1013.1
20260906044533 28 334 0.0 0.0 0.00 0.00 0.00 73 1013.2
20260906044104 28 334 0.0 0.0 0.00 0.00 0.00 73 1013.3
20260906043531 28 333 0.0 0.0 0.00 0.00 0.00 72 1013.3
20260906043040 28 333 0.0 0.0 0.00 0.00 0.00 72 1013.3
20260906042530 28 333 0.0 0.0 0.00 0.00 0.00 72 1013.2
20260906042057 28 334 0.0 0.0 0.00 0.00 0.00 72 1013.0
20260906041548 29 333 0.0 0.0 0.00 0.00 0.00 71 1013.1
20260906041102 29 333 0.0 0.0 0.00 0.00 0.00 71 1013.1
20260906040548 29 333 0.0 0.0 0.00 0.00 0.00 70 1013.0
20260906040036 29 333 0.0 0.0 0.00 0.00 0.00 70 1013.0
20260906035543 29 333 0.0 0.0 0.00 0.00 0.00 69 1013.1
20260906035040 29 333 0.0 0.0 0.00 0.00 0.00 69 1013.0
20260906034527 30 334 0.0 0.0 0.00 0.00 0.00 68 1013.1
20260906034042 30 332 0.0 0.0 0.00 0.00 0.00 68 1013.1
20260906033529 30 334 0.0 0.0 0.00 0.00 0.00 67 1013.0
20260906033041 30 334 0.0 0.0 0.00 0.00 0.00 66 1013.0
20260906032528 30 334 0.0 0.0 0.00 0.00 0.00 66 1013.0
20260906032039 30 334 0.0 0.0 0.00 0.00 0.00 66 1013.1
20260906031548 30 334 0.0 0.0 0.00 0.00 0.00 65 1013.1
20260906031035 30 334 0.0 0.0 0.00 0.00 0.00 65 1013.1
20260906030545 30 334 0.0 0.0 0.00 0.00 0.00 65 1013.1
20260906030033 30 333 0.0 0.0 0.00 0.00 0.00 64 1013.2
20260906025548 30 333 0.0 0.0 0.00 0.00 0.00 64 1013.1
20260906025034 30 333 0.0 0.0 0.00 0.00 0.00 64 1013.1
20260906024543 30 333 0.0 0.0 0.00 0.00 0.00 63 1013.1
20260906024036 30 333 0.0 0.0 0.00 0.00 0.00 63 1012.9
20260906023530 30 333 0.0 0.0 0.00 0.00 0.00 63 1012.8
20260906023054 31 333 0.0 0.0 0.00 0.00 0.00 63 1012.7
20260906022540 31 333 0.0 0.0 0.00 0.00 0.00 62 1012.6
20260906022035 31 333 0.0 0.0 0.00 0.00 0.00 62 1012.6
20260906021542 31 335 0.0 0.0 0.00 0.00 0.00 62 1012.4
20260906021034 31 333 0.0 0.0 0.00 0.00 0.00 61 1012.3
20260906020547 31 333 0.0 0.0 0.00 0.00 0.00 61 1012.3
20260906020033 31 333 0.0 0.0 0.00 0.00 0.00 61 1012.3
20260906015546 31 333 0.0 0.0 0.00 0.00 0.00 61 1012.3
20260906015057 31 333 0.0 0.0 0.00 0.00 0.00 60 1012.3
20260906014559 32 333 0.0 0.0 0.00 0.00 0.00 60 1012.1
20260906014108 32 333 0.0 0.0 0.00 0.00 0.00 59 1012.1
20260906013558 32 333 0.0 0.0 0.00 0.00 0.00 59 1012.0
20260906013030 32 333 0.0 0.0 0.00 0.00 0.00 58 1012.0
20260906012544 32 333 0.0 0.0 0.00 0.00 0.00 58 1012.0
20260906012036 32 333 0.0 0.0 0.00 0.00 0.00 57 1011.9
20260906011544 33 332 0.0 0.0 0.00 0.00 0.00 57 1011.9
20260906011031 33 333 0.0 0.0 0.00 0.00 0.00 56 1011.7
20260906010540 33 332 0.0 0.0 0.00 0.00 0.00 54 1011.6
20260906010048 34 332 0.0 0.0 0.00 0.00 0.00 51 1011.5
20260906005559 35 333 0.0 0.0 0.00 0.00 0.00 47 1011.3
20260906005046 35 333 0.0 0.0 0.00 0.00 0.00 47 1011.1
20260906004536 35 333 0.0 0.0 0.00 0.00 0.00 46 1011.2
20260906004044 35 332 0.0 0.0 0.00 0.00 0.00 46 1011.1
20260906003532 35 332 0.0 0.0 0.00 0.00 0.00 47 1011.1
20260906003046 35 333 0.0 0.0 0.00 0.00 0.00 46 1011.1
20260906002552 35 333 0.0 0.0 0.00 0.00 0.00 46 1011.2
20260906002040 35 332 0.0 0.0 0.00 0.00 0.00 46 1011.1
20260906001528 36 331 0.0 0.0 0.00 0.00 0.00 46 1011.1
20260906001041 36 332 0.0 0.0 0.00 0.00 0.00 46 1011.1
20260906000529 36 333 0.0 0.0 0.00 0.00 0.00 46 1011.1
20260905235534 36 332 0.0 0.0 0.00 0.00 0.00 45 1011.1
20260905235040 36 332 0.0 0.0 0.00 0.00 0.00 45 1011.0
20260905234533 36 332 0.0 0.0 0.00 0.00 0.00 45 1011.0
20260905234041 36 332 0.0 0.0 0.00 0.00 0.00 45 1010.9
20260905233549 36 332 0.0 0.0 0.00 0.00 0.00 44 1010.9
20260905233037 36 332 0.0 0.0 0.00 0.00 0.00 45 1010.9
20260905232546 36 332 0.0 0.0 0.00 0.00 0.00 44 1010.8
20260905232036 36 333 0.0 0.0 0.00 0.00 0.00 44 1010.9
20260905231530 36 333 0.0 0.0 0.00 0.00 0.00 44 1010.9
20260905231111 36 333 0.0 0.0 0.00 0.00 0.00 44 1011.0
20260905230539 36 331 0.0 0.0 0.00 0.00 0.00 44 1011.1
20260905230049 36 331 0.0 0.0 0.00 0.00 0.00 44 1011.0
20260905225542 36 331 0.0 0.0 0.00 0.00 0.00 44 1010.9